| time (UTC) | temp F | wind direction | speed MPH | gust MPH | rain 1hr in | rain 24hr in | rain mn in | humidity % | barometer mb |
| 20260505180516 | 83 | 90 | 2.0 | 6.0 | 0.00 | 0.00 | 0.00 | 41 | 1009.6 |
| 20260505175445 | 83 | 18 | 3.0 | 7.0 | 0.00 | 0.00 | 0.00 | 41 | 1009.6 |
| 20260505174444 | 82 | 285 | 2.0 | 7.0 | 0.00 | 0.00 | 0.00 | 41 | 1009.6 |
| 20260505173443 | 82 | 310 | 4.0 | 10.0 | 0.00 | 0.00 | 0.00 | 41 | 1009.6 |
| 20260505172443 | 81 | 336 | 3.0 | 7.0 | 0.00 | 0.00 | 0.00 | 41 | 1009.6 |
| 20260505171442 | 81 | 311 | 3.0 | 11.0 | 0.00 | 0.00 | 0.00 | 42 | 1009.9 |
| 20260505170442 | 82 | 288 | 2.0 | 7.0 | 0.00 | 0.00 | 0.00 | 41 | 1009.9 |
| 20260505165441 | 81 | 48 | 2.0 | 7.0 | 0.00 | 0.00 | 0.00 | 42 | 1009.9 |
| 20260505164440 | 80 | 291 | 2.0 | 5.0 | 0.00 | 0.00 | 0.00 | 43 | 1009.9 |
| 20260505163440 | 80 | 39 | 2.0 | 5.0 | 0.00 | 0.00 | 0.00 | 43 | 1009.9 |
| 20260505162408 | 79 | 4 | 2.0 | 7.0 | 0.00 | 0.00 | 0.00 | 44 | 1010.2 |
| 20260505161408 | 78 | 250 | 2.0 | 6.0 | 0.00 | 0.00 | 0.00 | 46 | 1010.2 |
| 20260505160407 | 78 | 57 | 2.0 | 5.0 | 0.00 | 0.00 | 0.00 | 47 | 1010.2 |
| 20260505152405 | 78 | 249 | 2.0 | 4.0 | 0.00 | 0.00 | 0.00 | 46 | 1010.6 |
| 20260505151404 | 78 | 343 | 2.0 | 3.0 | 0.00 | 0.00 | 0.00 | 46 | 1010.6 |
| 20260505150403 | 78 | 32 | 1.0 | 3.0 | 0.00 | 0.00 | 0.00 | 45 | 1010.6 |
| 20260505140328 | 73 | 200 | 1.0 | 4.0 | 0.00 | 0.00 | 0.00 | 50 | 1010.8 |
| 20260505130223 | 65 | 351 | 2.0 | 4.0 | 0.00 | 0.00 | 0.00 | 64 | 1011.1 |
| 20260505124222 | 63 | 73 | 2.0 | 3.0 | 0.00 | 0.00 | 0.00 | 69 | 1010.7 |
| 20260505123221 | 62 | 57 | 0.0 | 4.0 | 0.00 | 0.00 | 0.00 | 71 | 1010.7 |
| 20260505122220 | 61 | 346 | 5.0 | 6.0 | 0.00 | 0.00 | 0.00 | 72 | 1010.7 |
| 20260505121220 | 59 | 355 | 2.0 | 5.0 | 0.00 | 0.00 | 0.00 | 75 | 1010.7 |
| 20260505120219 | 58 | 231 | 3.0 | 4.0 | 0.00 | 0.00 | 0.00 | 75 | 1010.7 |
| 20260505115218 | 57 | 212 | 2.0 | 3.0 | 0.00 | 0.00 | 0.00 | 77 | 1010.7 |
| 20260505114218 | 56 | 34 | 1.0 | 2.0 | 0.00 | 0.00 | 0.00 | 77 | 1010.7 |
| 20260505113217 | 56 | 50 | 2.0 | 3.0 | 0.00 | 0.00 | 0.00 | 78 | 1010.7 |
| 20260505112216 | 55 | 23 | 1.0 | 2.0 | 0.00 | 0.00 | 0.00 | 78 | 1010.4 |
| 20260505111216 | 55 | 69 | 1.0 | 3.0 | 0.00 | 0.00 | 0.00 | 78 | 1010.4 |
| 20260505110215 | 55 | 224 | 2.0 | 3.0 | 0.00 | 0.00 | 0.00 | 78 | 1010.4 |
| 20260505102214 | 56 | 157 | 1.0 | 2.0 | 0.00 | 0.00 | 0.00 | 76 | 1010.4 |
| 20260505101213 | 56 | 255 | 0.0 | 3.0 | 0.00 | 0.00 | 0.00 | 76 | 1010.1 |
| 20260505100212 | 56 | 25 | 1.0 | 2.0 | 0.00 | 0.00 | 0.00 | 76 | 1010.1 |
| 20260505095211 | 56 | 330 | 1.0 | 5.0 | 0.00 | 0.00 | 0.00 | 76 | 1009.8 |
| 20260505094211 | 56 | 43 | 0.0 | 2.0 | 0.00 | 0.00 | 0.00 | 76 | 1009.8 |
| 20260505093210 | 56 | 5 | 2.0 | 4.0 | 0.00 | 0.00 | 0.00 | 76 | 1009.8 |
| 20260505092210 | 55 | 42 | 1.0 | 4.0 | 0.00 | 0.00 | 0.00 | 77 | 1009.8 |
| 20260505091209 | 55 | 111 | 1.0 | 2.0 | 0.00 | 0.00 | 0.00 | 77 | 1009.8 |
| 20260505090209 | 55 | 215 | 0.0 | 4.0 | 0.00 | 0.00 | 0.00 | 77 | 1009.8 |
| 20260505085208 | 56 | 59 | 1.0 | 3.0 | 0.00 | 0.00 | 0.00 | 77 | 1009.8 |
| 20260505084208 | 56 | 300 | 0.0 | 0.0 | 0.00 | 0.00 | 0.00 | 76 | 1010.1 |
| 20260505083207 | 56 | 296 | 0.0 | 0.0 | 0.00 | 0.00 | 0.00 | 76 | 1010.1 |
| 20260505082206 | 56 | 296 | 2.0 | 2.0 | 0.00 | 0.00 | 0.00 | 76 | 1009.8 |
| 20260505081205 | 57 | 34 | 0.0 | 2.0 | 0.00 | 0.00 | 0.00 | 75 | 1009.8 |
| 20260505080205 | 57 | 331 | 1.0 | 2.0 | 0.00 | 0.00 | 0.00 | 75 | 1009.8 |
| 20260505075204 | 57 | 328 | 2.0 | 2.0 | 0.00 | 0.00 | 0.00 | 75 | 1009.8 |
| 20260505074132 | 57 | 327 | 0.0 | 1.0 | 0.00 | 0.00 | 0.00 | 75 | 1010.1 |
| 20260505073132 | 57 | 334 | 0.0 | 1.0 | 0.00 | 0.00 | 0.00 | 75 | 1010.1 |
| 20260505072131 | 58 | 339 | 1.0 | 2.0 | 0.00 | 0.00 | 0.00 | 75 | 1010.1 |
| 20260505071130 | 58 | 334 | 2.0 | 2.0 | 0.00 | 0.00 | 0.00 | 74 | 1010.1 |
| 20260505070129 | 58 | 319 | 0.0 | 2.0 | 0.00 | 0.00 | 0.00 | 74 | 1009.8 |
| 20260505065129 | 59 | 315 | 1.0 | 1.0 | 0.00 | 0.00 | 0.00 | 73 | 1009.8 |
| 20260505064128 | 59 | 312 | 1.0 | 2.0 | 0.00 | 0.00 | 0.00 | 73 | 1009.8 |
| 20260505063128 | 59 | 293 | 1.0 | 3.0 | 0.00 | 0.00 | 0.00 | 73 | 1009.8 |
| 20260505062127 | 59 | 62 | 2.0 | 5.0 | 0.00 | 0.00 | 0.00 | 73 | 1009.5 |
| 20260505061127 | 59 | 302 | 2.0 | 4.0 | 0.00 | 0.00 | 0.00 | 72 | 1009.8 |
| 20260505060126 | 60 | 146 | 1.0 | 4.0 | 0.00 | 0.00 | 0.00 | 72 | 1009.8 |
| 20260505055126 | 60 | 325 | 1.0 | 4.0 | 0.00 | 0.00 | 0.00 | 71 | 1009.8 |
| 20260505054054 | 60 | 86 | 1.0 | 5.0 | 0.00 | 0.00 | 0.00 | 71 | 1009.8 |
| 20260505053022 | 60 | 65 | 1.0 | 4.0 | 0.00 | 0.00 | 0.00 | 71 | 1009.8 |
| 20260505051950 | 60 | 38 | 1.0 | 5.0 | 0.00 | 0.00 | 0.00 | 70 | 1009.8 |
| 20260505050950 | 60 | 57 | 1.0 | 5.0 | 0.00 | 0.00 | 0.00 | 70 | 1009.8 |
| 20260505040947 | 61 | 62 | 2.0 | 4.0 | 0.00 | 0.00 | 0.00 | 66 | 1009.8 |
| 20260505035946 | 61 | 46 | 2.0 | 5.0 | 0.00 | 0.00 | 0.00 | 64 | 1009.8 |
| 20260505034914 | 61 | 55 | 1.0 | 5.0 | 0.00 | 0.00 | 0.00 | 62 | 1009.7 |
| 20260505033914 | 61 | 33 | 1.0 | 3.0 | 0.00 | 0.00 | 0.00 | 60 | 1009.7 |
| 20260505032913 | 61 | 66 | 2.0 | 3.0 | 0.00 | 0.00 | 0.00 | 59 | 1009.7 |
| 20260505031912 | 61 | 245 | 1.0 | 4.0 | 0.00 | 0.00 | 0.00 | 58 | 1009.7 |
| 20260505030912 | 61 | 47 | 2.0 | 4.0 | 0.00 | 0.00 | 0.00 | 58 | 1009.7 |
| 20260505025911 | 61 | 48 | 0.0 | 2.0 | 0.00 | 0.00 | 0.00 | 59 | 1009.7 |
| 20260505024911 | 61 | 28 | 2.0 | 3.0 | 0.00 | 0.00 | 0.00 | 59 | 1010.0 |
| 20260505023910 | 61 | 65 | 0.0 | 3.0 | 0.00 | 0.00 | 0.00 | 58 | 1010.0 |
| 20260505022909 | 61 | 80 | 0.0 | 2.0 | 0.00 | 0.00 | 0.00 | 58 | 1010.0 |
| 20260505021837 | 61 | 50 | 1.0 | 3.0 | 0.00 | 0.00 | 0.00 | 58 | 1010.0 |
| 20260505020837 | 61 | 328 | 2.0 | 5.0 | 0.00 | 0.00 | 0.00 | 57 | 1010.0 |
| 20260505015836 | 62 | 32 | 1.0 | 3.0 | 0.00 | 0.00 | 0.00 | 58 | 1010.0 |
| 20260505014835 | 62 | 351 | 2.0 | 3.0 | 0.00 | 0.00 | 0.00 | 57 | 1010.0 |
| 20260505013835 | 62 | 34 | 1.0 | 2.0 | 0.00 | 0.00 | 0.00 | 57 | 1010.0 |
| 20260505012834 | 62 | 348 | 0.0 | 1.0 | 0.00 | 0.00 | 0.00 | 56 | 1010.0 |
| 20260505011833 | 62 | 348 | 0.0 | 2.0 | 0.00 | 0.00 | 0.00 | 55 | 1010.0 |
| 20260505010802 | 62 | 212 | 2.0 | 6.0 | 0.00 | 0.00 | 0.00 | 54 | 1009.6 |
| 20260505005801 | 63 | 16 | 0.0 | 1.0 | 0.00 | 0.00 | 0.00 | 53 | 1009.6 |
| 20260505004801 | 63 | 16 | 0.0 | 1.0 | 0.00 | 0.00 | 0.00 | 52 | 1009.6 |
| 20260505003800 | 64 | 16 | 0.0 | 1.0 | 0.00 | 0.00 | 0.00 | 51 | 1009.2 |
| 20260505002759 | 64 | 15 | 0.0 | 0.0 | 0.00 | 0.00 | 0.00 | 51 | 1009.2 |
| 20260505001728 | 65 | 15 | 1.0 | 3.0 | 0.00 | 0.00 | 0.00 | 49 | 1009.2 |
| 20260505000727 | 66 | 348 | 0.0 | 2.0 | 0.00 | 0.00 | 0.00 | 48 | 1009.2 |
| 20260504235726 | 66 | 343 | 1.0 | 2.0 | 0.00 | 0.00 | 0.00 | 47 | 1009.2 |
| 20260504234726 | 67 | 336 | 0.0 | 2.0 | 0.00 | 0.00 | 0.00 | 45 | 1009.2 |
| 20260504233725 | 68 | 341 | 0.0 | 2.0 | 0.00 | 0.00 | 0.00 | 45 | 1008.9 |
| 20260504232724 | 69 | 347 | 2.0 | 6.0 | 0.00 | 0.00 | 0.00 | 44 | 1008.9 |
| 20260504231724 | 69 | 135 | 2.0 | 3.0 | 0.00 | 0.00 | 0.00 | 43 | 1008.9 |
| 20260504230723 | 70 | 63 | 2.0 | 5.0 | 0.00 | 0.00 | 0.00 | 40 | 1008.9 |
| 20260504225722 | 71 | 355 | 2.0 | 4.0 | 0.00 | 0.00 | 0.00 | 41 | 1008.9 |
| 20260504224722 | 71 | 199 | 2.0 | 5.0 | 0.00 | 0.00 | 0.00 | 38 | 1008.9 |
| 20260504223722 | 72 | 172 | 2.0 | 4.0 | 0.00 | 0.00 | 0.00 | 37 | 1008.9 |
| 20260504222650 | 73 | 357 | 1.0 | 7.0 | 0.00 | 0.00 | 0.00 | 36 | 1008.9 |
| 20260504221649 | 73 | 208 | 2.0 | 4.0 | 0.00 | 0.00 | 0.00 | 35 | 1008.9 |
| 20260504220649 | 74 | 37 | 1.0 | 6.0 | 0.00 | 0.00 | 0.00 | 35 | 1008.9 |
| 20260504215649 | 74 | 273 | 2.0 | 7.0 | 0.00 | 0.00 | 0.00 | 36 | 1009.3 |
| 20260504214617 | 73 | 349 | 2.0 | 5.0 | 0.00 | 0.00 | 0.00 | 35 | 1009.3 |
| 20260504213545 | 74 | 254 | 3.0 | 7.0 | 0.00 | 0.00 | 0.00 | 33 | 1009.3 |
| 20260504212545 | 75 | 299 | 2.0 | 5.0 | 0.00 | 0.00 | 0.00 | 34 | 1009.3 |
| 20260504211544 | 75 | 246 | 0.0 | 3.0 | 0.00 | 0.00 | 0.00 | 34 | 1009.3 |
| 20260504210512 | 75 | 291 | 3.0 | 5.0 | 0.00 | 0.00 | 0.00 | 33 | 1009.3 |
| 20260504205441 | 75 | 53 | 2.0 | 5.0 | 0.00 | 0.00 | 0.00 | 33 | 1009.3 |
| 20260504204440 | 76 | 358 | 2.0 | 4.0 | 0.00 | 0.00 | 0.00 | 33 | 1009.3 |
| 20260504203439 | 75 | 286 | 2.0 | 5.0 | 0.00 | 0.00 | 0.00 | 33 | 1009.3 |
| 20260504202439 | 75 | 22 | 1.0 | 6.0 | 0.00 | 0.00 | 0.00 | 33 | 1009.3 |
| 20260504201438 | 75 | 37 | 2.0 | 7.0 | 0.00 | 0.00 | 0.00 | 32 | 1009.3 |
| 20260504200437 | 74 | 317 | 2.0 | 7.0 | 0.00 | 0.00 | 0.00 | 32 | 1009.3 |
| 20260504195436 | 74 | 241 | 2.0 | 7.0 | 0.00 | 0.00 | 0.00 | 33 | 1009.3 |
| 20260504194436 | 74 | 239 | 3.0 | 5.0 | 0.00 | 0.00 | 0.00 | 32 | 1009.6 |
| 20260504193435 | 74 | 218 | 2.0 | 7.0 | 0.00 | 0.00 | 0.00 | 32 | 1009.6 |
| 20260504192434 | 75 | 314 | 2.0 | 5.0 | 0.00 | 0.00 | 0.00 | 32 | 1009.6 |
| 20260504191331 | 75 | 287 | 2.0 | 6.0 | 0.00 | 0.00 | 0.00 | 34 | 1010.0 |
| 20260504190331 | 74 | 18 | 2.0 | 8.0 | 0.00 | 0.00 | 0.00 | 33 | 1010.0 |
| 20260504185228 | 74 | 347 | 2.0 | 8.0 | 0.00 | 0.00 | 0.00 | 32 | 1010.3 |
| 20260504184157 | 74 | 284 | 1.0 | 9.0 | 0.00 | 0.00 | 0.00 | 32 | 1010.3 |
| 20260504183156 | 73 | 60 | 2.0 | 5.0 | 0.00 | 0.00 | 0.00 | 34 | 1010.3 |
| 20260504182156 | 74 | 258 | 3.0 | 11.0 | 0.00 | 0.00 | 0.00 | 32 | 1010.7 |
| 20260504181052 | 74 | 253 | 2.0 | 5.0 | 0.00 | 0.00 | 0.00 | 34 | 1010.7 |